Time,TemperatureF,DewpointF,PressureIn,WindDirection,WindDirectionDegrees,WindSpeedMPH,WindSpeedGustMPH,Humidity,HourlyPrecipIn,Conditions,Clouds,dailyrainin,SoftwareType,DateUTC
2013-08-16 00:00:00,54.5,32.5,29.79,North,355,0.0,3.0,43,0.00,,---,0.00,VWS V14.01,2013-08-16 06:00:00,
2013-08-16 00:10:00,54.0,32.0,29.78,North,355,0.0,0.0,43,0.00,,---,0.00,VWS V14.01,2013-08-16 06:10:00,
2013-08-16 00:20:00,53.5,31.6,29.78,North,355,0.0,0.0,43,0.00,,---,0.00,VWS V14.01,2013-08-16 06:20:00,
2013-08-16 00:30:00,51.9,31.8,29.80,North,355,0.0,0.0,46,0.00,,---,0.00,VWS V14.01,2013-08-16 06:30:00,
2013-08-16 00:40:00,53.0,32.8,29.79,North,355,0.0,0.0,46,0.00,,---,0.00,VWS V14.01,2013-08-16 06:40:00,
2013-08-16 00:50:00,52.9,33.8,29.79,North,355,0.0,0.0,48,0.00,,---,0.00,VWS V14.01,2013-08-16 06:50:00,
2013-08-16 01:00:00,50.9,32.9,29.81,North,355,0.0,0.0,50,0.00,,---,0.00,VWS V14.01,2013-08-16 07:00:00,
2013-08-16 01:10:00,50.9,32.9,29.79,North,355,0.0,0.0,50,0.00,,---,0.00,VWS V14.01,2013-08-16 07:10:00,
2013-08-16 01:20:00,50.6,33.2,29.79,North,355,0.0,0.0,51,0.00,,---,0.00,VWS V14.01,2013-08-16 07:20:00,
2013-08-16 01:30:00,50.9,32.9,29.79,North,355,0.0,0.0,50,0.00,,---,0.00,VWS V14.01,2013-08-16 07:30:00,
2013-08-16 01:40:00,50.6,32.7,29.80,North,355,0.0,0.0,50,0.00,,---,0.00,VWS V14.01,2013-08-16 07:40:00,
2013-08-16 01:50:00,49.8,32.9,29.81,North,355,0.0,0.0,52,0.00,,---,0.00,VWS V14.01,2013-08-16 07:50:00,
2013-08-16 02:00:00,49.7,32.8,29.81,North,355,0.0,0.0,52,0.00,,---,0.00,VWS V14.01,2013-08-16 08:00:00,
2013-08-16 02:10:00,49.9,32.0,29.79,North,355,0.0,0.0,50,0.00,,---,0.00,VWS V14.01,2013-08-16 08:10:00,
2013-08-16 02:20:00,48.4,33.0,29.80,North,355,0.0,4.0,55,0.00,,---,0.00,VWS V14.01,2013-08-16 08:20:00,
2013-08-16 02:30:00,48.5,33.1,29.79,North,355,0.0,0.0,55,0.00,,---,0.00,VWS V14.01,2013-08-16 08:30:00,
2013-08-16 02:40:00,48.9,33.5,29.79,North,355,0.0,0.0,55,0.00,,---,0.00,VWS V14.01,2013-08-16 08:40:00,
2013-08-16 02:50:00,48.1,33.6,29.81,North,355,0.0,0.0,57,0.00,,---,0.00,VWS V14.01,2013-08-16 08:50:00,
2013-08-16 03:00:00,48.2,33.3,29.81,North,355,0.0,0.0,56,0.00,,---,0.00,VWS V14.01,2013-08-16 09:00:00,
2013-08-16 03:10:00,47.8,32.9,29.79,North,355,0.0,0.0,56,0.00,,---,0.00,VWS V14.01,2013-08-16 09:10:00,
2013-08-16 03:20:00,46.5,32.5,29.81,North,355,0.0,0.0,58,0.00,,---,0.00,VWS V14.01,2013-08-16 09:20:00,
2013-08-16 03:30:00,46.3,32.3,29.81,North,355,0.0,0.0,58,0.00,,---,0.00,VWS V14.01,2013-08-16 09:30:00,
2013-08-16 03:40:00,45.1,32.1,29.83,North,355,0.0,0.0,60,0.00,,---,0.00,VWS V14.01,2013-08-16 09:40:00,
2013-08-16 03:50:00,45.5,32.8,29.81,North,355,0.0,0.0,61,0.00,,---,0.00,VWS V14.01,2013-08-16 09:50:00,
2013-08-16 04:00:00,45.6,32.5,29.81,North,355,0.0,6.0,60,0.00,,---,0.00,VWS V14.01,2013-08-16 10:00:00,
2013-08-16 04:10:00,45.2,32.2,29.84,North,355,0.0,0.0,60,0.00,,---,0.00,VWS V14.01,2013-08-16 10:10:00,
2013-08-16 04:20:00,45.4,32.8,29.84,North,355,0.0,0.0,61,0.00,,---,0.00,VWS V14.01,2013-08-16 10:20:00,
2013-08-16 04:30:00,45.6,32.5,29.83,North,355,0.0,0.0,60,0.00,,---,0.00,VWS V14.01,2013-08-16 10:30:00,
2013-08-16 04:40:00,44.8,32.2,29.84,North,355,0.0,0.0,61,0.00,,---,0.00,VWS V14.01,2013-08-16 10:40:00,
2013-08-16 04:50:00,43.9,32.1,29.84,North,355,0.0,0.0,63,0.00,,---,0.00,VWS V14.01,2013-08-16 10:50:00,
2013-08-16 05:00:00,44.3,32.5,29.85,North,355,0.0,0.0,63,0.00,,---,0.00,VWS V14.01,2013-08-16 11:00:00,
2013-08-16 05:10:00,44.0,31.8,29.86,North,355,0.0,0.0,62,0.00,,---,0.00,VWS V14.01,2013-08-16 11:10:00,
2013-08-16 05:20:00,43.6,32.2,29.86,North,355,3.0,5.0,64,0.00,,---,0.00,VWS V14.01,2013-08-16 11:20:00,
2013-08-16 05:30:00,43.4,32.0,29.86,North,355,0.0,4.0,64,0.00,,---,0.00,VWS V14.01,2013-08-16 11:30:00,
2013-08-16 05:40:00,43.8,32.4,29.87,North,355,3.0,9.0,64,0.00,,---,0.00,VWS V14.01,2013-08-16 11:40:00,
2013-08-16 05:50:00,44.6,31.6,29.85,North,355,4.0,10.0,60,0.00,,---,0.00,VWS V14.01,2013-08-16 11:50:00,
2013-08-16 06:00:00,44.0,31.4,29.87,North,355,0.0,7.0,61,0.00,,---,0.00,VWS V14.01,2013-08-16 12:00:00,
2013-08-16 06:10:00,43.5,32.2,29.89,North,355,3.0,6.0,64,0.00,,---,0.00,VWS V14.01,2013-08-16 12:10:00,
2013-08-16 06:20:00,43.6,31.9,29.89,North,355,0.0,4.0,63,0.00,,---,0.00,VWS V14.01,2013-08-16 12:20:00,
2013-08-16 06:30:00,43.4,31.3,29.90,North,355,0.0,0.0,62,0.00,,---,0.00,VWS V14.01,2013-08-16 12:30:00,
2013-08-16 06:40:00,43.2,31.5,29.90,North,355,0.0,0.0,63,0.00,,---,0.00,VWS V14.01,2013-08-16 12:40:00,
2013-08-16 06:50:00,43.2,31.9,29.89,North,355,0.0,0.0,64,0.00,,---,0.00,VWS V14.01,2013-08-16 12:50:00,
2013-08-16 07:00:00,44.3,32.1,29.89,North,355,0.0,0.0,62,0.00,,---,0.00,VWS V14.01,2013-08-16 13:00:00,
2013-08-16 07:10:00,45.6,33.3,29.96,North,355,0.0,0.0,62,0.00,,---,0.00,VWS V14.01,2013-08-16 13:10:00,
2013-08-16 07:20:00,47.7,33.7,29.94,North,355,2.0,7.0,58,0.00,,---,0.00,VWS V14.01,2013-08-16 13:20:00,
2013-08-16 07:30:00,49.5,33.1,29.93,North,355,1.0,5.0,53,0.00,,---,0.00,VWS V14.01,2013-08-16 13:30:00,
2013-08-16 07:40:00,51.1,33.6,29.91,North,355,0.0,9.0,51,0.00,,---,0.00,VWS V14.01,2013-08-16 13:40:00,
2013-08-16 07:50:00,52.3,34.2,29.91,North,355,0.0,6.0,50,0.00,,---,0.00,VWS V14.01,2013-08-16 13:50:00,
2013-08-16 08:00:00,54.0,34.8,29.89,North,355,0.0,0.0,48,0.00,,---,0.00,VWS V14.01,2013-08-16 14:00:00,
2013-08-16 08:10:00,56.0,34.4,29.88,North,360,0.0,6.0,44,0.00,,---,0.00,VWS V14.01,2013-08-16 14:10:00,
2013-08-16 08:20:00,56.9,35.2,29.87,North,5,0.0,4.0,44,0.00,,---,0.00,VWS V14.01,2013-08-16 14:20:00,
2013-08-16 08:30:00,57.5,34.6,29.86,North,5,0.0,7.0,42,0.00,,---,0.00,VWS V14.01,2013-08-16 14:30:00,
2013-08-16 08:40:00,58.5,34.9,29.86,North,5,0.0,7.0,41,0.00,,---,0.00,VWS V14.01,2013-08-16 14:40:00,
2013-08-16 08:50:00,60.0,35.6,29.85,North,360,0.0,4.0,40,0.00,,---,0.00,VWS V14.01,2013-08-16 14:50:00,
2013-08-16 09:00:00,61.5,35.0,29.83,North,5,0.0,0.0,37,0.00,,---,0.00,VWS V14.01,2013-08-16 15:00:00,
2013-08-16 09:10:00,62.4,35.8,29.85,North,360,0.0,0.0,37,0.00,,---,0.00,VWS V14.01,2013-08-16 15:10:00,
2013-08-16 09:20:00,64.5,36.3,29.82,North,5,0.0,0.0,35,0.00,,---,0.00,VWS V14.01,2013-08-16 15:20:00,
2013-08-16 09:30:00,64.3,36.8,29.82,North,360,0.0,2.0,36,0.00,,---,0.00,VWS V14.01,2013-08-16 15:30:00,
2013-08-16 09:40:00,65.2,36.2,29.82,North,5,0.0,1.0,34,0.00,,---,0.00,VWS V14.01,2013-08-16 15:40:00,
2013-08-16 09:50:00,65.8,35.9,29.80,North,5,0.0,6.0,33,0.00,,---,0.00,VWS V14.01,2013-08-16 15:50:00,
2013-08-16 10:00:00,67.6,37.5,29.80,North,5,0.0,2.0,33,0.00,,---,0.00,VWS V14.01,2013-08-16 16:00:00,
2013-08-16 10:10:00,69.8,37.8,29.78,North,5,0.0,0.0,31,0.00,,---,0.00,VWS V14.01,2013-08-16 16:10:00,
2013-08-16 10:20:00,69.8,37.8,29.78,SE,132,0.0,7.0,31,0.00,,---,0.00,VWS V14.01,2013-08-16 16:20:00,
2013-08-16 10:30:00,71.5,36.7,29.78,SE,132,0.0,0.0,28,0.00,,---,0.00,VWS V14.01,2013-08-16 16:30:00,
2013-08-16 10:40:00,72.6,38.5,29.76,SE,142,1.0,5.0,29,0.00,,---,0.00,VWS V14.01,2013-08-16 16:40:00,
2013-08-16 10:50:00,73.4,38.3,29.76,SSE,155,8.0,8.0,28,0.00,,---,0.00,VWS V14.01,2013-08-16 16:50:00,
2013-08-16 11:00:00,73.8,37.8,29.74,SSE,167,1.0,8.0,27,0.00,,---,0.00,VWS V14.01,2013-08-16 17:00:00,
2013-08-16 11:10:00,74.9,36.7,29.76,SSE,161,3.0,7.0,25,0.00,,---,0.00,VWS V14.01,2013-08-16 17:10:00,
2013-08-16 11:20:00,75.7,34.2,29.77,SSE,149,1.0,7.0,22,0.00,,---,0.00,VWS V14.01,2013-08-16 17:20:00,
2013-08-16 11:30:00,76.1,34.5,29.77,SSE,156,7.0,11.0,22,0.00,,---,0.00,VWS V14.01,2013-08-16 17:30:00,
2013-08-16 11:40:00,76.0,33.3,29.76,South,182,0.0,9.0,21,0.00,,---,0.00,VWS V14.01,2013-08-16 17:40:00,
2013-08-16 11:50:00,77.8,33.6,29.75,SSW,194,5.0,13.0,20,0.00,,---,0.00,VWS V14.01,2013-08-16 17:50:00,
2013-08-16 12:00:00,77.6,32.1,29.74,SSE,147,6.0,12.0,19,0.00,,---,0.00,VWS V14.01,2013-08-16 18:00:00,
2013-08-16 12:10:00,78.6,31.6,29.75,SW,230,1.0,7.0,18,0.00,,---,0.00,VWS V14.01,2013-08-16 18:10:00,
2013-08-16 12:20:00,78.3,31.4,29.77,WSW,245,5.0,11.0,18,0.00,,---,0.00,VWS V14.01,2013-08-16 18:20:00,
2013-08-16 12:30:00,79.0,30.5,29.75,NNW,340,6.0,15.0,17,0.00,,---,0.00,VWS V14.01,2013-08-16 18:30:00,
2013-08-16 12:40:00,77.8,29.5,29.76,SE,134,0.0,9.0,17,0.00,,---,0.00,VWS V14.01,2013-08-16 18:40:00,
2013-08-16 12:50:00,77.3,31.9,29.76,ESE,107,0.0,6.0,19,0.00,,---,0.00,VWS V14.01,2013-08-16 18:50:00,
2013-08-16 13:00:00,77.2,30.5,29.76,NNE,13,0.0,10.0,18,0.00,,---,0.00,VWS V14.01,2013-08-16 19:00:00,
2013-08-16 13:10:00,77.8,32.3,29.75,NNW,342,0.0,5.0,19,0.00,,---,0.00,VWS V14.01,2013-08-16 19:10:00,
2013-08-16 13:20:00,78.2,31.3,29.75,East,94,0.0,8.0,18,0.00,,---,0.00,VWS V14.01,2013-08-16 19:20:00,
2013-08-16 13:30:00,77.9,31.0,29.75,East,94,0.0,5.0,18,0.00,,---,0.00,VWS V14.01,2013-08-16 19:30:00,
2013-08-16 13:40:00,78.3,31.4,29.75,SE,126,0.0,6.0,18,0.00,,---,0.00,VWS V14.01,2013-08-16 19:40:00,
2013-08-16 13:50:00,78.2,31.3,29.75,North,350,12.0,25.0,18,0.00,,---,0.00,VWS V14.01,2013-08-16 19:50:00,
2013-08-16 14:00:00,79.0,30.5,29.75,North,360,9.0,15.0,17,0.00,,---,0.00,VWS V14.01,2013-08-16 20:00:00,
2013-08-16 14:10:00,77.7,30.9,29.77,NNW,338,4.0,17.0,18,0.00,,---,0.00,VWS V14.01,2013-08-16 20:10:00,
2013-08-16 14:20:00,77.3,30.5,29.78,NW,323,2.0,7.0,18,0.00,,---,0.00,VWS V14.01,2013-08-16 20:20:00,
2013-08-16 14:30:00,76.5,31.2,29.79,SSW,204,3.0,25.0,19,0.00,,---,0.00,VWS V14.01,2013-08-16 20:30:00,
2013-08-16 14:40:00,76.6,32.6,29.77,South,186,9.0,21.0,20,0.00,,---,0.00,VWS V14.01,2013-08-16 20:40:00,
2013-08-16 14:50:00,78.7,33.0,29.75,SSE,165,9.0,20.0,19,0.00,,---,0.00,VWS V14.01,2013-08-16 20:50:00,
2013-08-16 15:00:00,77.9,32.4,29.75,SSW,213,11.0,19.0,19,0.00,,---,0.00,VWS V14.01,2013-08-16 21:00:00,
2013-08-16 15:10:00,77.3,33.1,29.78,SW,217,11.0,22.0,20,0.00,,---,0.00,VWS V14.01,2013-08-16 21:10:00,
2013-08-16 15:20:00,75.9,32.0,29.78,SSW,213,7.0,19.0,20,0.00,,---,0.00,VWS V14.01,2013-08-16 21:20:00,
2013-08-16 15:30:00,75.8,31.9,29.77,SW,220,9.0,18.0,20,0.00,,---,0.00,VWS V14.01,2013-08-16 21:30:00,
2013-08-16 15:40:00,76.0,32.1,29.77,SSW,200,2.0,15.0,20,0.00,,---,0.00,VWS V14.01,2013-08-16 21:40:00,
2013-08-16 15:50:00,78.7,33.0,29.75,SSE,155,5.0,16.0,19,0.00,,---,0.00,VWS V14.01,2013-08-16 21:50:00,
2013-08-16 16:00:00,78.6,30.2,29.75,SSW,192,9.0,16.0,17,0.00,,---,0.00,VWS V14.01,2013-08-16 22:00:00,
2013-08-16 16:10:00,79.2,30.7,29.77,SSE,152,0.0,10.0,17,0.00,,---,0.00,VWS V14.01,2013-08-16 22:10:00,
2013-08-16 16:20:00,77.3,31.9,29.79,SW,215,0.0,10.0,19,0.00,,---,0.00,VWS V14.01,2013-08-16 22:20:00,
2013-08-16 16:30:00,76.9,32.8,29.78,SSW,199,6.0,9.0,20,0.00,,---,0.00,VWS V14.01,2013-08-16 22:30:00,
2013-08-16 16:40:00,76.4,32.4,29.79,SSW,205,9.0,12.0,20,0.00,,---,0.00,VWS V14.01,2013-08-16 22:40:00,
2013-08-16 16:50:00,76.1,34.5,29.79,SSE,157,1.0,10.0,22,0.00,,---,0.00,VWS V14.01,2013-08-16 22:50:00,
2013-08-16 17:00:00,75.7,33.0,29.79,SSE,164,6.0,15.0,21,0.00,,---,0.00,VWS V14.01,2013-08-16 23:00:00,
2013-08-16 17:10:00,74.9,33.5,29.80,SSE,153,7.0,11.0,22,0.00,,---,0.00,VWS V14.01,2013-08-16 23:10:00,
2013-08-16 17:20:00,74.9,34.6,29.80,South,188,6.0,15.0,23,0.00,,---,0.00,VWS V14.01,2013-08-16 23:20:00,
2013-08-16 17:30:00,75.3,31.5,29.80,West,277,7.0,18.0,20,0.00,,---,0.00,VWS V14.01,2013-08-16 23:30:00,
2013-08-16 17:40:00,75.5,31.7,29.79,SW,217,4.0,22.0,20,0.00,,---,0.00,VWS V14.01,2013-08-16 23:40:00,
2013-08-16 17:50:00,75.3,32.7,29.80,WSW,238,0.0,9.0,21,0.00,,---,0.00,VWS V14.01,2013-08-16 23:50:00,
2013-08-16 18:00:00,75.8,30.6,29.78,WSW,245,11.0,16.0,19,0.00,,---,0.00,VWS V14.01,2013-08-17 00:00:00,
2013-08-16 18:10:00,75.8,30.6,29.78,WSW,240,0.0,25.0,19,0.00,,---,0.00,VWS V14.01,2013-08-17 00:10:00,
2013-08-16 18:20:00,75.4,34.0,29.78,ENE,75,0.0,6.0,22,0.00,,---,0.00,VWS V14.01,2013-08-17 00:20:00,
2013-08-16 18:30:00,74.0,31.6,29.80,East,93,4.0,14.0,21,0.00,,---,0.00,VWS V14.01,2013-08-17 00:30:00,
2013-08-16 18:40:00,73.5,32.4,29.81,SSE,150,0.0,6.0,22,0.00,,---,0.00,VWS V14.01,2013-08-17 00:40:00,
2013-08-16 18:50:00,72.9,34.0,29.83,SSE,148,0.0,0.0,24,0.00,,---,0.00,VWS V14.01,2013-08-17 00:50:00,
2013-08-16 19:00:00,71.9,34.2,29.83,SSE,149,0.0,3.0,25,0.00,,---,0.00,VWS V14.01,2013-08-17 01:00:00,
2013-08-16 19:10:00,71.3,33.7,29.76,SSE,150,4.0,8.0,25,0.00,,---,0.00,VWS V14.01,2013-08-17 01:10:00,
2013-08-16 19:20:00,70.8,34.2,29.76,SE,141,3.0,7.0,26,0.00,,---,0.00,VWS V14.01,2013-08-17 01:20:00,
2013-08-16 19:30:00,70.2,34.7,29.76,South,188,0.0,4.0,27,0.00,,---,0.00,VWS V14.01,2013-08-17 01:30:00,
2013-08-16 19:40:00,69.1,33.7,29.78,South,188,0.0,0.0,27,0.00,,---,0.00,VWS V14.01,2013-08-17 01:40:00,
2013-08-16 19:50:00,68.5,34.1,29.78,WSW,251,0.0,0.0,28,0.00,,---,0.00,VWS V14.01,2013-08-17 01:50:00,
2013-08-16 20:00:00,67.0,34.6,29.80,WSW,251,0.0,0.0,30,0.00,,---,0.00,VWS V14.01,2013-08-17 02:00:00,
2013-08-16 20:10:00,64.9,34.4,29.76,WSW,250,0.0,0.0,32,0.00,,---,0.00,VWS V14.01,2013-08-17 02:10:00,
2013-08-16 20:20:00,65.1,33.7,29.76,WSW,251,0.0,0.0,31,0.00,,---,0.00,VWS V14.01,2013-08-17 02:20:00,
2013-08-16 20:30:00,66.1,33.8,29.75,WSW,252,5.0,5.0,30,0.00,,---,0.00,VWS V14.01,2013-08-17 02:30:00,
2013-08-16 20:40:00,67.4,32.3,29.75,SE,139,4.0,6.0,27,0.00,,---,0.00,VWS V14.01,2013-08-17 02:40:00,
2013-08-16 20:50:00,68.3,33.1,29.73,SE,138,0.0,4.0,27,0.00,,---,0.00,VWS V14.01,2013-08-17 02:50:00,
2013-08-16 21:00:00,67.0,32.8,29.75,SE,138,0.0,1.0,28,0.00,,---,0.00,VWS V14.01,2013-08-17 03:00:00,
2013-08-16 21:10:00,65.8,33.5,29.72,SE,138,0.0,0.0,30,0.00,,---,0.00,VWS V14.01,2013-08-17 03:10:00,
2013-08-16 21:20:00,66.0,32.9,29.72,West,268,2.0,6.0,29,0.00,,---,0.00,VWS V14.01,2013-08-17 03:20:00,
2013-08-16 21:30:00,65.8,33.5,29.73,West,267,5.0,7.0,30,0.00,,---,0.00,VWS V14.01,2013-08-17 03:30:00,
2013-08-16 21:40:00,65.6,33.4,29.73,West,267,3.0,7.0,30,0.00,,---,0.00,VWS V14.01,2013-08-17 03:40:00,
2013-08-16 21:50:00,64.4,33.1,29.74,West,267,0.0,5.0,31,0.00,,---,0.00,VWS V14.01,2013-08-17 03:50:00,
2013-08-16 22:00:00,64.7,33.4,29.75,West,267,0.0,0.0,31,0.00,,---,0.00,VWS V14.01,2013-08-17 04:00:00,
2013-08-16 22:10:00,62.3,32.9,29.72,West,268,0.0,0.0,33,0.00,,---,0.00,VWS V14.01,2013-08-17 04:10:00,
2013-08-16 22:20:00,61.6,33.0,29.72,West,268,0.0,0.0,34,0.00,,---,0.00,VWS V14.01,2013-08-17 04:20:00,
2013-08-16 22:30:00,61.6,33.7,29.72,West,268,0.0,0.0,35,0.00,,---,0.00,VWS V14.01,2013-08-17 04:30:00,
2013-08-16 22:40:00,60.3,33.3,29.74,West,268,0.0,0.0,36,0.00,,---,0.00,VWS V14.01,2013-08-17 04:40:00,
2013-08-16 22:50:00,58.4,32.2,29.76,West,268,0.0,4.0,37,0.00,,---,0.00,VWS V14.01,2013-08-17 04:50:00,
2013-08-16 23:00:00,58.5,32.3,29.77,West,268,0.0,4.0,37,0.00,,---,0.00,VWS V14.01,2013-08-17 05:00:00,
2013-08-16 23:10:00,59.0,32.8,29.73,West,268,0.0,4.0,37,0.00,,---,0.00,VWS V14.01,2013-08-17 05:10:00,
2013-08-16 23:20:00,58.3,32.8,29.74,West,268,0.0,0.0,38,0.00,,---,0.00,VWS V14.01,2013-08-17 05:20:00,
2013-08-16 23:30:00,57.1,32.4,29.76,West,268,0.0,0.0,39,0.00,,---,0.00,VWS V14.01,2013-08-17 05:30:00,
2013-08-16 23:40:00,55.8,32.5,29.76,West,268,0.0,0.0,41,0.00,,---,0.00,VWS V14.01,2013-08-17 05:40:00,
2013-08-16 23:50:00,55.9,32.6,29.76,West,268,0.0,0.0,41,0.00,,---,0.00,VWS V14.01,2013-08-17 05:50:00,